CW0405 Weather Reports


time (UTC)temp
C
wind
direction
speed
KPH
gust
KPH
rain 1hr
cm
rain 24hr
cm
rain mn
cm
humidity
%
barometer
mb
20260508033549 9 172 0.0 1.6 0.00 0.00 0.00 52 1006.5
20260508033043 9 247 0.0 8.0 0.00 0.00 0.00 52 1006.5
20260508032538 9 249 0.0 8.0 0.00 0.00 0.00 53 1006.4
20260508032030 9 135 0.0 3.2 0.00 0.00 0.00 53 1006.4
20260508031524 9 281 0.0 4.8 0.00 0.00 0.00 54 1006.4
20260508031017 9 255 0.0 4.8 0.00 0.00 0.00 55 1006.4
20260508030512 8 316 0.0 3.2 0.00 0.00 0.00 56 1006.4
20260508025512 9 225 0.0 4.8 0.00 0.00 0.00 57 1006.1
20260508024954 9 219 0.0 3.2 0.00 0.00 0.00 55 1006.1
20260508024450 9 231 0.0 1.6 0.00 0.00 0.00 56 1006.1
20260508023944 10 248 0.0 0.0 0.00 0.00 0.00 55 1006.1
20260508023436 10 196 0.0 0.0 0.00 0.00 0.00 54 1006.1
20260508022932 10 186 0.0 0.0 0.00 0.00 0.00 51 1006.1
20260508022426 10 180 0.0 3.2 0.00 0.00 0.00 51 1006.1
20260508021918 10 221 0.0 3.2 0.00 0.00 0.00 50 1006.2
20260508021413 10 224 0.0 0.0 0.00 0.00 0.00 50 1006.2
20260508020906 10 224 0.0 0.0 0.00 0.00 0.00 49 1006.2
20260508020401 10 224 0.0 0.0 0.00 0.00 0.00 49 1006.2
20260508015855 10 224 0.0 0.0 0.00 0.00 0.00 49 1006.0
20260508015350 10 224 0.0 3.2 0.00 0.00 0.00 48 1005.9
20260508014841 10 224 0.0 3.2 0.00 0.00 0.00 47 1005.9
20260508013832 10 201 0.0 0.0 0.00 0.00 0.00 48 1005.8
20260508013324 11 243 0.0 0.0 0.00 0.00 0.00 48 1005.6
20260508012818 11 243 0.0 0.0 0.00 0.00 0.00 47 1005.6
20260508012314 11 243 0.0 0.0 0.00 0.00 0.00 46 1005.6
20260508011808 11 248 0.0 0.0 0.00 0.00 0.00 45 1005.5
20260508011301 11 203 0.0 0.0 0.00 0.00 0.00 44 1005.5
20260508010758 11 203 0.0 1.6 0.00 0.00 0.00 44 1005.4
20260508010249 11 219 0.0 1.6 0.00 0.00 0.00 43 1005.3
20260508005742 11 224 0.0 3.2 0.00 0.00 0.00 43 1005.2
20260508005237 12 223 0.0 3.2 0.00 0.00 0.00 42 1005.2
20260508004731 12 246 0.0 0.0 0.00 0.00 0.00 42 1005.1
20260508004223 12 235 0.0 0.0 0.00 0.00 0.00 41 1005.1
20260508003719 12 235 0.0 0.0 0.00 0.00 0.00 41 1005.1
20260508003211 12 233 0.0 1.6 0.00 0.00 0.00 40 1005.0
20260508002705 12 250 0.0 4.8 0.00 0.00 0.00 40 1004.9
20260508002202 12 294 0.0 4.8 0.00 0.00 0.00 41 1004.8
20260508001148 13 314 0.0 1.6 0.00 0.00 0.00 38 1004.8
20260508000136 13 214 1.6 6.4 0.00 0.00 0.00 38 1004.6
20260507235629 13 265 0.0 4.8 0.00 0.00 0.00 37 1004.6
20260507234619 13 335 1.6 6.4 0.00 0.00 0.00 36 1004.5
20260507234111 14 240 0.0 6.4 0.00 0.00 0.00 35 1004.5
20260507233606 14 51 1.6 11.3 0.00 0.00 0.00 35 1004.5
20260507233101 14 312 1.6 12.9 0.00 0.00 0.00 34 1004.4
20260507232553 14 170 1.6 12.9 0.00 0.00 0.00 34 1004.3
20260507232048 15 297 3.2 9.7 0.00 0.00 0.00 34 1004.2
20260507231544 15 209 1.6 9.7 0.00 0.00 0.00 34 1004.2
20260507230529 15 323 1.6 14.5 0.00 0.00 0.00 33 1004.1
20260507225518 15 235 4.8 14.5 0.00 0.00 0.00 32 1004.1
20260507225012 15 249 3.2 14.5 0.00 0.00 0.00 32 1004.1
20260507224507 15 346 1.6 9.7 0.00 0.00 0.00 32 1004.0
20260507224001 16 309 3.2 8.0 0.00 0.00 0.00 32 1004.0
20260507223506 16 31 3.2 16.1 0.00 0.00 0.00 32 1004.0
20260507222951 16 240 3.2 16.1 0.00 0.00 0.00 32 1003.8
20260507222443 16 257 3.2 11.3 0.00 0.00 0.00 32 1003.8
20260507221937 16 288 1.6 11.3 0.00 0.00 0.00 31 1003.7
20260507221432 16 209 1.6 19.3 0.00 0.00 0.00 31 1003.7
20260507220925 16 270 3.2 19.3 0.00 0.00 0.00 31 1003.6
20260507220418 17 133 3.2 17.7 0.00 0.00 0.00 31 1003.6
20260507215406 17 259 3.2 11.3 0.00 0.00 0.00 33 1003.5
20260507214901 17 162 4.8 12.9 0.00 0.00 0.00 32 1003.5
20260507214354 17 312 4.8 17.7 0.00 0.00 0.00 32 1003.5
20260507212837 17 56 3.2 20.9 0.00 0.00 0.00 30 1003.4
20260507212330 17 248 6.4 20.9 0.00 0.00 0.00 31 1003.4
20260507211824 17 304 4.8 17.7 0.00 0.00 0.00 30 1003.4
20260507210813 17 282 4.8 16.1 0.00 0.00 0.00 30 1003.4
20260507210308 17 20 3.2 16.1 0.00 0.00 0.00 30 1003.4
20260507205800 17 221 3.2 16.1 0.00 0.00 0.00 30 1003.5
20260507205254 17 251 3.2 16.1 0.00 0.00 0.00 31 1003.4
20260507204747 17 254 4.8 16.1 0.00 0.00 0.00 31 1003.4
20260507204242 17 278 6.4 19.3 0.00 0.00 0.00 31 1003.4
20260507203736 17 219 6.4 19.3 0.00 0.00 0.00 31 1003.3
20260507203230 17 154 3.2 12.9 0.00 0.00 0.00 31 1003.4
20260507202725 17 316 3.2 14.5 0.00 0.00 0.00 29 1003.4
20260507202219 17 288 6.4 20.9 0.00 0.00 0.00 30 1003.4
20260507201711 17 266 6.4 20.9 0.00 0.00 0.00 31 1003.4
20260507201207 17 134 4.8 22.5 0.00 0.00 0.00 31 1003.4
20260507200659 17 151 4.8 22.5 0.00 0.00 0.00 30 1003.5
20260507200155 17 174 6.4 20.9 0.00 0.00 0.00 32 1003.5
20260507195648 17 195 3.2 16.1 0.00 0.00 0.00 30 1003.5
20260507195146 17 231 3.2 14.5 0.00 0.00 0.00 33 1003.5
20260507194644 17 172 4.8 14.5 0.00 0.00 0.00 35 1003.5
20260507194145 17 309 4.8 14.5 0.00 0.00 0.00 33 1003.5
20260507193646 17 276 4.8 14.5 0.00 0.00 0.00 33 1003.5
20260507193144 17 146 4.8 14.5 0.00 0.00 0.00 33 1003.5
20260507192143 17 253 3.2 14.5 0.00 0.00 0.00 35 1003.7
20260507191645 17 235 4.8 11.3 0.00 0.00 0.00 33 1003.8
20260507191140 17 346 4.8 22.5 0.00 0.00 0.00 33 1003.8
20260507190640 17 274 6.4 22.5 0.00 0.00 0.00 34 1003.8
20260507190139 17 110 6.4 17.7 0.00 0.00 0.00 33 1003.9
20260507185142 17 256 8.0 22.5 0.00 0.00 0.00 31 1003.9
20260507184639 17 262 6.4 22.5 0.00 0.00 0.00 35 1003.8
20260507184140 17 255 4.8 14.5 0.00 0.00 0.00 35 1003.9
20260507183639 17 288 4.8 14.5 0.00 0.00 0.00 37 1004.0
20260507182643 17 257 4.8 19.3 0.00 0.00 0.00 35 1004.0
20260507181642 17 309 4.8 17.7 0.00 0.00 0.00 34 1004.1
20260507181140 17 289 6.4 22.5 0.00 0.00 0.00 34 1004.2
20260507180643 17 328 6.4 27.4 0.00 0.00 0.00 32 1004.2
20260507180138 17 334 4.8 27.4 0.00 0.00 0.00 33 1004.1
20260507175640 17 304 4.8 16.1 0.00 0.00 0.00 33 1004.2
20260507175141 17 314 6.4 20.9 0.00 0.00 0.00 34 1004.2
20260507174134 17 290 4.8 16.1 0.00 0.00 0.00 38 1003.9
20260507173637 16 231 4.8 17.7 0.00 0.00 0.00 36 1004.0
20260507172635 16 264 6.4 20.9 0.00 0.00 0.00 34 1004.2
20260507172136 16 223 6.4 20.9 0.00 0.00 0.00 37 1004.2
20260507171138 17 263 4.8 16.1 0.00 0.00 0.00 40 1004.2
20260507170630 17 230 6.4 14.5 0.00 0.00 0.00 41 1004.3
20260507170129 16 218 6.4 14.5 0.00 0.00 0.00 44 1004.3
20260507165629 16 273 6.4 12.9 0.00 0.00 0.00 43 1004.4
20260507165131 16 229 4.8 14.5 0.00 0.00 0.00 45 1004.4
20260507164628 16 308 6.4 14.5 0.00 0.00 0.00 49 1004.4
20260507164129 15 235 6.4 14.5 0.00 0.00 0.00 50 1004.6
20260507163630 16 128 4.8 12.9 0.00 0.00 0.00 51 1004.7
20260507163131 16 165 4.8 12.9 0.00 0.00 0.00 52 1004.7
20260507162629 15 285 3.2 12.9 0.00 0.00 0.00 53 1004.8
20260507162130 15 271 3.2 17.7 0.00 0.00 0.00 55 1004.9
20260507161135 15 245 3.2 14.5 0.00 0.00 0.00 53 1004.9
20260507160129 16 300 3.2 12.9 0.00 0.00 0.00 53 1005.0
20260507155629 16 33 4.8 12.9 0.00 0.00 0.00 51 1005.1
20260507154619 16 265 4.8 17.7 0.00 0.00 0.00 54 1005.1
20260507153618 15 263 3.2 11.3 0.00 0.00 0.00 51 1005.2
20260507153118 15 331 3.2 11.3 0.00 0.00 0.00 52 1005.1
20260507152616 15 300 3.2 11.3 0.00 0.00 0.00 51 1005.2
20260507152114 15 192 1.6 12.9 0.00 0.00 0.00 49 1005.2
20260507151613 15 191 3.2 12.9 0.00 0.00 0.00 51 1005.4
20260507150610 15 290 4.8 11.3 0.00 0.00 0.00 49 1005.6
20260507144611 15 188 4.8 14.5 0.00 0.00 0.00 50 1005.7
20260507144112 15 229 4.8 14.5 0.00 0.00 0.00 53 1005.6
20260507143612 15 247 3.2 9.7 0.00 0.00 0.00 54 1005.7
20260507143113 15 251 3.2 11.3 0.00 0.00 0.00 53 1005.6
20260507142613 15 200 3.2 12.9 0.00 0.00 0.00 54 1005.6
20260507142110 15 261 3.2 12.9 0.00 0.00 0.00 54 1005.5
20260507141610 14 243 4.8 11.3 0.00 0.00 0.00 55 1005.6
20260507141109 14 238 4.8 12.9 0.00 0.00 0.00 54 1005.6
20260507140609 14 242 3.2 12.9 0.00 0.00 0.00 55 1005.6
20260507135108 13 281 3.2 8.0 0.00 0.00 0.00 58 1005.5
20260507134609 13 264 1.6 8.0 0.00 0.00 0.00 59 1005.5
20260507134110 13 211 1.6 9.7 0.00 0.00 0.00 59 1005.6
20260507133110 13 111 3.2 9.7 0.00 0.00 0.00 61 1006.0
20260507132109 13 255 3.2 9.7 0.00 0.00 0.00 64 1006.0
20260507131608 12 328 3.2 9.7 0.00 0.00 0.00 66 1006.0
20260507131108 12 7 3.2 9.7 0.00 0.00 0.00 64 1006.1
20260507130603 12 334 4.8 11.3 0.00 0.00 0.00 66 1006.1
20260507130115 12 58 4.8 11.3 0.00 0.00 0.00 65 1006.2
20260507125603 12 30 3.2 9.7 0.00 0.00 0.00 66 1006.2
20260507125104 12 148 1.6 9.7 0.00 0.00 0.00 68 1006.1
20260507124602 12 250 3.2 9.7 0.00 0.00 0.00 68 1006.2
20260507122607 11 303 1.6 11.3 0.00 0.00 0.00 72 1006.1
20260507122103 11 295 1.6 11.3 0.00 0.00 0.00 73 1006.4
20260507121604 11 217 1.6 9.7 0.00 0.00 0.00 75 1006.3
20260507121115 10 169 1.6 6.4 0.00 0.00 0.00 77 1006.4
20260507120616 10 289 1.6 6.4 0.00 0.00 0.00 78 1006.3
20260507120115 10 340 1.6 9.7 0.00 0.00 0.00 79 1006.3
20260507115603 10 322 1.6 9.7 0.00 0.00 0.00 81 1006.3
20260507115105 9 279 1.6 4.8 0.00 0.00 0.00 82 1006.3
20260507114605 9 306 1.6 6.4 0.00 0.00 0.00 82 1006.3
20260507113605 9 274 0.0 8.0 0.00 0.00 0.00 83 1006.2
20260507113102 9 339 0.0 8.0 0.00 0.00 0.00 82 1005.9
20260507112604 9 344 0.0 1.6 0.00 0.00 0.00 83 1006.0
20260507112104 9 276 0.0 4.8 0.00 0.00 0.00 84 1005.9
20260507111104 8 320 0.0 4.8 0.00 0.00 0.00 84 1006.3
20260507110604 8 258 1.6 4.8 0.00 0.00 0.00 84 1006.3
20260507105538 -17 0.0 0.0 0.00 0.00 0.00 1006.0
20260507105027 -17 0.0 0.0 0.00 0.00 0.00 1005.6
20260507104524 -17 0.0 0.0 0.00 0.00 0.00 1005.7
20260507103437 -17 0.0 0.0 0.00 0.00 0.00 1005.6
20260507102430 -17 0.0 0.0 0.00 0.00 0.00 1005.6
20260507101428 -17 0.0 0.0 0.00 0.00 0.00 1005.7
20260507100933 -17 0.0 0.0 0.00 0.00 0.00 1005.6
20260507100426 -17 0.0 0.0 0.00 0.00 0.00 1005.5
20260507095924 -17 0.0 0.0 0.00 0.00 0.00 1005.9
20260507095352 -17 0.0 0.0 0.00 0.00 0.00 1006.0
20260507094834 -17 0.0 0.0 0.00 0.00 0.00 1005.7
20260507094334 -17 0.0 0.0 0.00 0.00 0.00 1005.7
20260507093824 -17 0.0 0.0 0.00 0.00 0.00 1005.7
20260507093327 -17 0.0 0.0 0.00 0.00 0.00 1005.4
20260507092825 -17 0.0 0.0 0.00 0.00 0.00 1005.6
20260507092232 -17 0.0 0.0 0.00 0.00 0.00 1005.7
20260507091730 -17 0.0 0.0 0.00 0.00 0.00 1005.7
20260507091220 -17 0.0 0.0 0.00 0.00 0.00 1005.7
20260507090726 -17 0.0 0.0 0.00 0.00 0.00 1005.5
20260507090232 8 0.0 3.2 0.00 0.00 0.00 87 1005.4
20260507085210 8 269 1.6 11.3 0.00 0.00 0.00 87 1005.0
20260507084708 9 234 1.6 11.3 0.00 0.00 0.00 88 1005.3
20260507084207 9 269 1.6 8.0 0.00 0.00 0.00 88 1005.3
20260507083707 9 271 1.6 8.0 0.00 0.00 0.00 88 1005.1
20260507083210 9 318 1.6 8.0 0.00 0.00 0.00 88 1005.0
20260507082710 9 234 1.6 8.0 0.00 0.00 0.00 88 1005.1
20260507082202 9 44 1.6 4.8 0.00 0.00 0.00 87 1005.0
20260507081203 10 248 3.2 11.3 0.00 0.00 0.00 86 1005.1
20260507080705 10 288 3.2 14.5 0.00 0.00 0.00 86 1005.2
20260507080202 10 272 3.2 14.5 0.00 0.00 0.00 85 1005.3
20260507075701 10 312 3.2 9.7 0.00 0.00 0.00 85 1004.9
20260507075150 10 205 4.8 11.3 0.00 0.00 0.00 85 1005.3
20260507074649 10 201 3.2 12.9 0.00 0.00 0.00 85 1005.2
20260507074151 10 329 3.2 12.9 0.00 0.00 0.00 85 1005.1
20260507073649 10 232 1.6 11.3 0.00 0.00 0.00 85 1005.0
20260507073147 10 101 3.2 11.3 0.00 0.00 0.00 85 1004.9
20260507072646 10 233 3.2 12.9 0.00 0.00 0.00 85 1004.6
20260507072147 10 339 3.2 12.9 0.00 0.00 0.00 86 1004.7
20260507071645 10 233 1.6 12.9 0.00 0.00 0.00 87 1004.7
20260507070644 10 274 3.2 11.3 0.00 0.00 0.00 87 1005.0
20260507070141 10 310 3.2 11.3 0.00 0.00 0.00 87 1004.5
20260507065639 10 248 3.2 12.9 0.00 0.00 0.00 87 1004.6
20260507065136 10 260 3.2 12.9 0.00 0.00 0.00 88 1004.6
20260507064637 10 267 3.2 11.3 0.00 0.00 0.00 88 1004.5
20260507064137 11 285 3.2 17.7 0.00 0.00 0.00 88 1004.6
20260507063635 11 250 1.6 17.7 0.00 0.00 0.00 88 1004.4
20260507063133 11 273 0.0 6.4 0.00 0.00 0.00 89 1004.3
20260507062627 11 271 1.6 8.0 0.00 0.00 0.00 89 1004.2
20260507062121 11 212 1.6 8.0 0.00 0.00 0.00 90 1004.5
20260507061624 11 243 0.0 8.0 0.00 0.00 0.00 90 1004.4
20260507061118 11 302 0.0 4.8 0.00 0.00 0.00 90 1004.4
20260507060117 11 281 1.6 11.3 0.00 0.00 0.00 90 1004.5
20260507055619 11 280 1.6 11.3 0.00 0.00 0.00 90 1004.6
20260507055119 11 282 1.6 9.7 0.00 0.00 0.00 91 1004.6
20260507054619 11 313 1.6 8.0 0.00 0.00 0.00 91 1004.7
20260507053621 11 293 1.6 8.0 0.00 0.00 0.00 90 1004.5
20260507053119 11 249 3.2 12.9 0.00 0.00 0.00 90 1004.7
20260507052615 11 212 1.6 12.9 0.00 0.00 0.00 90 1005.0
20260507051120 11 246 1.6 11.3 0.00 0.00 0.00 91 1004.7
20260507050615 12 308 1.6 11.3 0.00 0.00 0.00 91 1004.8
20260507045609 12 312 0.0 6.4 0.00 0.00 0.00 92 1004.7
20260507044557 12 307 1.6 8.0 0.00 0.00 0.00 91 1004.4
20260507044052 12 234 3.2 12.9 0.00 0.00 0.00 91 1004.5
20260507043547 12 273 3.2 14.5 0.00 0.00 0.00 91 1004.4
20260507043039 12 230 3.2 14.5 0.00 0.00 0.00 90 1004.5
20260507042534 12 230 3.2 12.9 0.00 0.00 0.00 90 1004.7
20260507042028 13 232 3.2 12.9 0.00 0.00 0.00 90 1004.7
20260507041520 13 265 3.2 9.7 0.00 0.00 0.00 91 1004.7
20260507041014 13 237 3.2 12.9 0.00 0.00 0.00 91 1004.6
20260507040509 13 208 1.6 12.9 0.00 0.00 0.00 92 1004.5
20260507040003 14 276 3.2 14.5 0.00 0.00 0.00 92 1004.3
20260507035457 14 332 4.8 14.5 0.00 0.00 0.00 92 1004.3
20260507034950 15 293 3.2 14.5 0.00 0.00 0.00 93 1004.2
20260507033937 15 311 1.6 8.0 0.00 0.00 0.00 94 1004.0